Find Starlink 1433

NORAD ID: 45711 Int'l Des: 2020-035 Owner: SPXS Country: US Constellation: starlink operational
LEOCIRCULAR

当前视图

正在加载3D地球...

About Starlink 1433

Starlink 1433 (NORAD 45711) is a starlink constellation satellite (v1.0) launched Jun 4, 2020 by SPXS of US. It operates in LEO, CIRCULAR orbit with a mass of 260.00 kg.

关于 Starlink 1433

正在加载描述...

即将过境

Passes for default location (London). Set your location on the main map for personalized predictions.

高度历史

Loading altitude history...

两行轨道根数

1 45711U 20035BG 26194.52198642 .00058701 00000-0 32668-3 0 9996
2 45711 53.0411 122.3966 0001356 148.4128 211.6974 15.78916724339089
Epoch: Jul 13, 2026 • Age: 14 hours

当前状态

高度 338.1 km
远地点 / 近地点 N/A
速度 7.71 km/s
星下点 45.56°N, 159.74°W
发射日期 Jun 4, 2020
运行时间 6.1 years
类型 internet

技术详情

分类 Payload
质量 260.00 kg
干质量 248.00 kg
总质量 260.00 kg
长度 0.20 m
直径 2.80 m
跨度 9.00 m
形状 Box + pan
制造商 SPXS
平台类型 Starlink
阶段状态 In Orbit
所有者/国家 SPXS/US

Most Searched